This is the latest recevied weather packets stored in our database for station/object DJ2DS-13. If no packets are shown the sender has not sent any weather packets the latest 10 day(s).
| Time | Temp. | Humidity | Pressure | Rain* | Wind** | Luminosity | Snow |
|---|---|---|---|---|---|---|---|
| 1777734236 | 20° C | 63% | 1014.3 hPa | 0 mm | - | 237 W/m² | - |
| 1777733937 | 20° C | 63% | 1014.3 hPa | 0 mm | - | 250 W/m² | - |
| 1777733635 | 20° C | 61% | 1014.4 hPa | 0 mm | - | 271 W/m² | - |
| 1777733330 | 20° C | 58% | 1014.4 hPa | 0 mm | - | 271 W/m² | - |
| 1777733030 | 20.56° C | 56% | 1014.5 hPa | 0 mm | - | 232 W/m² | - |
| 1777732730 | 20.56° C | 55% | 1014.5 hPa | 0 mm | - | 230 W/m² | - |
| 1777732429 | 20.56° C | 52% | 1014.5 hPa | 0 mm | - | 260 W/m² | - |
| 1777732132 | 20.56° C | 51% | 1014.4 hPa | 0 mm | - | 250 W/m² | - |
| 1777731828 | 20.56° C | 50% | 1014.6 hPa | 0 mm | - | 248 W/m² | - |
| 1777731528 | 21.67° C | 48% | 1014.5 hPa | 0 mm | - | 220 W/m² | - |
| 1777731228 | 22.22° C | 46% | 1014.4 hPa | 0 mm | - | 552 W/m² | - |
| 1777730928 | 22.78° C | 46% | 1014.4 hPa | 0 mm | - | 644 W/m² | - |
| 1777730629 | 22.22° C | 48% | 1014.5 hPa | 0 mm | - | 637 W/m² | - |
| 1777730327 | 22.22° C | 48% | 1014.4 hPa | 0 mm | - | 443 W/m² | - |
| 1777730026 | 21.67° C | 48% | 1014.3 hPa | 0 mm | - | 345 W/m² | - |
| 1777729726 | 22.22° C | 47% | 1014.4 hPa | 0 mm | - | 278 W/m² | - |
| 1777729427 | 22.22° C | 46% | 1014.4 hPa | 0 mm | - | 331 W/m² | - |
| 1777729126 | 22.22° C | 46% | 1014.5 hPa | 0 mm | - | 624 W/m² | - |
| 1777728825 | 22.78° C | 48% | 1014.5 hPa | 0 mm | - | 647 W/m² | - |
| 1777728524 | 22.22° C | 47% | 1014.5 hPa | 0 mm | - | 640 W/m² | - |
| 1777728224 | 22.22° C | 48% | 1014.5 hPa | 0 mm | - | 693 W/m² | - |
| 1777727925 | 22.22° C | 46% | 1014.5 hPa | 0 mm | - | 637 W/m² | - |
| 1777727621 | 22.22° C | 49% | 1014.6 hPa | 0 mm | - | 628 W/m² | - |
| 1777727320 | 22.22° C | 48% | 1014.7 hPa | 0 mm | - | 812 W/m² | - |
| 1777727015 | 22.22° C | 47% | 1014.7 hPa | 0 mm | - | 271 W/m² | - |
* Rain latest hour (hover to see other rain measurements)
** Current wind speed in m/s (hover to see current wind gust speed)